Time,TemperatureF,DewpointF,PressureIn,WindDirection,WindDirectionDegrees,WindSpeedMPH,WindSpeedGustMPH,Humidity,HourlyPrecipIn,Conditions,Clouds,dailyrainin,SoftwareType,DateUTC
2013-04-16 00:00:00,48.7,45.3,30.32,NE,44,5.0,5.0,88,0.00,,,0.00,Wunderground v.1.15,2013-04-16 04:00:00,
2013-04-16 00:01:00,48.7,45.3,30.32,ENE,60,5.0,5.0,88,0.00,,,0.00,Wunderground v.1.15,2013-04-16 04:01:00,
2013-04-16 00:02:00,48.7,45.3,30.32,NE,43,5.0,8.0,88,0.00,,,0.00,Wunderground v.1.15,2013-04-16 04:02:00,
2013-04-16 00:07:00,48.7,45.3,30.33,ENE,65,5.0,8.0,88,0.00,,,0.00,Wunderground v.1.15,2013-04-16 04:07:00,
2013-04-16 00:10:00,48.7,45.3,30.33,ENE,66,5.0,5.0,88,0.00,,,0.00,Wunderground v.1.15,2013-04-16 04:10:00,
2013-04-16 00:15:00,48.7,45.3,30.33,NE,53,4.0,6.0,88,0.00,,,0.00,Wunderground v.1.15,2013-04-16 04:15:00,
2013-04-16 00:21:00,48.7,45.6,30.33,ENE,72,3.0,3.0,89,0.00,,,0.00,Wunderground v.1.15,2013-04-16 04:21:00,
2013-04-16 00:26:00,48.7,45.6,30.33,East,80,3.0,5.0,89,0.00,,,0.00,Wunderground v.1.15,2013-04-16 04:26:00,
2013-04-16 00:32:00,48.6,45.5,30.33,ENE,59,4.0,5.0,89,0.00,,,0.00,Wunderground v.1.15,2013-04-16 04:32:00,
2013-04-16 00:37:00,48.7,45.6,30.33,ENE,75,4.0,5.0,89,0.00,,,0.00,Wunderground v.1.15,2013-04-16 04:37:00,
2013-04-16 00:43:00,48.6,45.5,30.33,East,85,5.0,9.0,89,0.00,,,0.00,Wunderground v.1.15,2013-04-16 04:43:00,
2013-04-16 00:48:00,48.6,45.5,30.33,ENE,67,4.0,9.0,89,0.00,,,0.00,Wunderground v.1.15,2013-04-16 04:48:00,
2013-04-16 00:55:00,48.7,45.6,30.33,ENE,70,4.0,6.0,89,0.00,,,0.00,Wunderground v.1.15,2013-04-16 04:55:00,
2013-04-16 01:00:00,48.6,45.5,30.33,East,80,4.0,4.0,89,0.00,,,0.00,Wunderground v.1.15,2013-04-16 05:00:00,
2013-04-16 01:06:00,48.7,45.6,30.33,NE,51,4.0,5.0,89,0.00,,,0.00,Wunderground v.1.15,2013-04-16 05:06:00,
2013-04-16 01:12:00,48.7,45.6,30.32,East,81,4.0,6.0,89,0.00,,,0.00,Wunderground v.1.15,2013-04-16 05:12:00,
2013-04-16 01:17:00,48.7,45.6,30.32,East,85,5.0,8.0,89,0.00,,,0.00,Wunderground v.1.15,2013-04-16 05:17:00,
2013-04-16 01:22:00,48.7,45.6,30.32,East,81,5.0,5.0,89,0.00,,,0.00,Wunderground v.1.15,2013-04-16 05:22:00,
2013-04-16 01:28:00,48.7,45.9,30.32,ENE,73,4.0,8.0,90,0.00,,,0.00,Wunderground v.1.15,2013-04-16 05:28:00,
2013-04-16 01:33:00,48.7,45.9,30.31,ENE,71,5.0,6.0,90,0.00,,,0.00,Wunderground v.1.15,2013-04-16 05:33:00,
2013-04-16 01:39:00,48.7,45.9,30.31,ENE,70,5.0,6.0,90,0.00,,,0.00,Wunderground v.1.15,2013-04-16 05:39:00,
2013-04-16 01:45:00,48.6,45.8,30.31,NE,54,4.0,7.0,90,0.00,,,0.00,Wunderground v.1.15,2013-04-16 05:45:00,
2013-04-16 01:51:00,48.6,45.8,30.31,East,81,5.0,6.0,90,0.00,,,0.00,Wunderground v.1.15,2013-04-16 05:51:00,
2013-04-16 01:56:00,48.6,45.8,30.31,East,84,5.0,6.0,90,0.00,,,0.00,Wunderground v.1.15,2013-04-16 05:56:00,
2013-04-16 02:02:00,48.6,45.8,30.31,East,98,5.0,8.0,90,0.00,,,0.00,Wunderground v.1.15,2013-04-16 06:02:00,
2013-04-16 02:07:00,48.6,46.1,30.30,ENE,71,5.0,8.0,91,0.00,,,0.00,Wunderground v.1.15,2013-04-16 06:07:00,
2013-04-16 02:13:00,48.7,46.2,30.30,ENE,62,5.0,5.0,91,0.00,,,0.00,Wunderground v.1.15,2013-04-16 06:13:00,
2013-04-16 02:20:00,48.7,46.2,30.30,ENE,69,5.0,5.0,91,0.00,,,0.00,Wunderground v.1.15,2013-04-16 06:20:00,
2013-04-16 02:26:00,48.7,46.2,30.30,East,82,4.0,7.0,91,0.00,,,0.00,Wunderground v.1.15,2013-04-16 06:26:00,
2013-04-16 02:31:00,48.8,46.3,30.30,ENE,64,4.0,5.0,91,0.00,,,0.00,Wunderground v.1.15,2013-04-16 06:31:00,
2013-04-16 02:38:00,48.8,46.3,30.30,ENE,74,4.0,9.0,91,0.00,,,0.00,Wunderground v.1.15,2013-04-16 06:38:00,
2013-04-16 02:44:00,48.8,46.3,30.30,East,95,4.0,6.0,91,0.00,,,0.00,Wunderground v.1.15,2013-04-16 06:44:00,
2013-04-16 02:49:00,48.8,46.3,30.30,ENE,75,4.0,6.0,91,0.00,,,0.00,Wunderground v.1.15,2013-04-16 06:49:00,
2013-04-16 02:55:00,48.9,46.4,30.30,East,88,4.0,5.0,91,0.00,,,0.00,Wunderground v.1.15,2013-04-16 06:55:00,
2013-04-16 03:00:00,49.0,46.5,30.30,ENE,71,5.0,5.0,91,0.00,,,0.00,Wunderground v.1.15,2013-04-16 07:00:00,
2013-04-16 03:06:00,49.0,46.5,30.30,East,86,5.0,6.0,91,0.00,,,0.00,Wunderground v.1.15,2013-04-16 07:06:00,
2013-04-16 03:11:00,49.0,46.5,30.30,East,94,5.0,6.0,91,0.00,,,0.00,Wunderground v.1.15,2013-04-16 07:11:00,
2013-04-16 03:16:00,49.1,46.6,30.30,East,83,5.0,9.0,91,0.00,,,0.00,Wunderground v.1.15,2013-04-16 07:16:00,
2013-04-16 03:22:00,49.1,46.6,30.29,East,80,6.0,8.0,91,0.00,,,0.00,Wunderground v.1.15,2013-04-16 07:22:00,
2013-04-16 03:27:00,49.1,46.6,30.30,East,80,6.0,8.0,91,0.00,,,0.00,Wunderground v.1.15,2013-04-16 07:27:00,
2013-04-16 03:32:00,49.2,46.7,30.30,East,82,5.0,5.0,91,0.00,,,0.00,Wunderground v.1.15,2013-04-16 07:32:00,
2013-04-16 03:37:00,49.2,46.7,30.30,ESE,104,5.0,7.0,91,0.00,,,0.00,Wunderground v.1.15,2013-04-16 07:37:00,
2013-04-16 03:42:00,49.2,46.7,30.30,East,80,5.0,8.0,91,0.00,,,0.00,Wunderground v.1.15,2013-04-16 07:42:00,
2013-04-16 03:48:00,49.2,46.7,30.29,East,86,5.0,9.0,91,0.00,,,0.00,Wunderground v.1.15,2013-04-16 07:48:00,
2013-04-16 03:54:00,49.2,46.7,30.30,ENE,74,5.0,7.0,91,0.00,,,0.00,Wunderground v.1.15,2013-04-16 07:54:00,
2013-04-16 03:59:00,49.2,46.7,30.30,East,90,5.0,7.0,91,0.00,,,0.00,Wunderground v.1.15,2013-04-16 07:59:00,
2013-04-16 04:05:00,49.2,46.7,30.30,East,82,5.0,7.0,91,0.00,,,0.00,Wunderground v.1.15,2013-04-16 08:05:00,
2013-04-16 04:11:00,49.2,47.0,30.30,East,82,5.0,8.0,92,0.00,,,0.00,Wunderground v.1.15,2013-04-16 08:11:00,
2013-04-16 04:16:00,49.2,47.0,30.30,ESE,103,5.0,8.0,92,0.00,,,0.00,Wunderground v.1.15,2013-04-16 08:16:00,
2013-04-16 04:22:00,49.2,47.0,30.30,East,82,5.0,5.0,92,0.00,,,0.00,Wunderground v.1.15,2013-04-16 08:22:00,
2013-04-16 04:27:00,49.2,47.0,30.30,East,96,4.0,6.0,92,0.00,,,0.00,Wunderground v.1.15,2013-04-16 08:27:00,
2013-04-16 04:33:00,49.2,47.0,30.30,East,84,5.0,6.0,92,0.00,,,0.00,Wunderground v.1.15,2013-04-16 08:33:00,
2013-04-16 04:38:00,49.2,47.0,30.30,East,82,5.0,11.0,92,0.00,,,0.00,Wunderground v.1.15,2013-04-16 08:38:00,
2013-04-16 04:44:00,49.2,47.0,30.30,East,82,5.0,7.0,92,0.00,,,0.00,Wunderground v.1.15,2013-04-16 08:44:00,
2013-04-16 04:50:00,49.1,46.9,30.30,ENE,76,5.0,5.0,92,0.00,,,0.00,Wunderground v.1.15,2013-04-16 08:50:00,
2013-04-16 04:55:00,49.1,46.9,30.30,ENE,71,4.0,5.0,92,0.00,,,0.00,Wunderground v.1.15,2013-04-16 08:55:00,
2013-04-16 05:00:00,49.0,46.8,30.30,East,94,4.0,7.0,92,0.00,,,0.00,Wunderground v.1.15,2013-04-16 09:00:00,
2013-04-16 05:06:00,49.0,46.8,30.30,East,82,4.0,7.0,92,0.00,,,0.00,Wunderground v.1.15,2013-04-16 09:06:00,
2013-04-16 05:11:00,49.0,46.8,30.30,ENE,76,5.0,7.0,92,0.00,,,0.00,Wunderground v.1.15,2013-04-16 09:11:00,
2013-04-16 05:17:00,49.0,46.8,30.30,ENE,72,5.0,8.0,92,0.00,,,0.00,Wunderground v.1.15,2013-04-16 09:17:00,
2013-04-16 05:22:00,49.0,46.8,30.30,East,84,5.0,5.0,92,0.00,,,0.00,Wunderground v.1.15,2013-04-16 09:22:00,
2013-04-16 05:27:00,49.1,46.9,30.30,ENE,77,5.0,7.0,92,0.00,,,0.00,Wunderground v.1.15,2013-04-16 09:27:00,
2013-04-16 05:33:00,49.1,46.9,30.30,East,81,5.0,7.0,92,0.00,,,0.00,Wunderground v.1.15,2013-04-16 09:33:00,
2013-04-16 05:38:00,49.1,46.9,30.30,ENE,64,5.0,7.0,92,0.00,,,0.00,Wunderground v.1.15,2013-04-16 09:38:00,
2013-04-16 05:44:00,49.1,46.9,30.30,East,82,5.0,6.0,92,0.00,,,0.00,Wunderground v.1.15,2013-04-16 09:44:00,
2013-04-16 05:49:00,49.1,46.9,30.30,ENE,71,5.0,6.0,92,0.00,,,0.00,Wunderground v.1.15,2013-04-16 09:49:00,
2013-04-16 05:55:00,49.1,46.9,30.30,ESE,107,4.0,6.0,92,0.00,,,0.00,Wunderground v.1.15,2013-04-16 09:55:00,
2013-04-16 06:00:00,49.1,46.9,30.30,East,92,4.0,4.0,92,0.00,,,0.00,Wunderground v.1.15,2013-04-16 10:00:00,
2013-04-16 06:06:00,49.2,47.0,30.30,ENE,71,4.0,8.0,92,0.00,,,0.00,Wunderground v.1.15,2013-04-16 10:06:00,
2013-04-16 06:12:00,49.2,47.0,30.30,East,82,4.0,4.0,92,0.00,,,0.00,Wunderground v.1.15,2013-04-16 10:12:00,
2013-04-16 06:17:00,49.2,47.0,30.30,ESE,102,4.0,6.0,92,0.00,,,0.00,Wunderground v.1.15,2013-04-16 10:17:00,
2013-04-16 06:23:00,49.2,47.0,30.30,East,86,4.0,5.0,92,0.00,,,0.00,Wunderground v.1.15,2013-04-16 10:23:00,
2013-04-16 06:29:00,49.2,47.0,30.30,East,96,5.0,6.0,92,0.00,,,0.00,Wunderground v.1.15,2013-04-16 10:29:00,
2013-04-16 06:34:00,49.3,47.1,30.30,East,92,5.0,8.0,92,0.00,,,0.00,Wunderground v.1.15,2013-04-16 10:34:00,
2013-04-16 06:39:00,49.3,47.1,30.30,East,84,6.0,8.0,92,0.00,,,0.00,Wunderground v.1.15,2013-04-16 10:39:00,
2013-04-16 06:45:00,49.4,47.2,30.30,East,98,5.0,6.0,92,0.00,,,0.00,Wunderground v.1.15,2013-04-16 10:45:00,
2013-04-16 06:50:00,49.4,47.5,30.30,ESE,107,5.0,6.0,93,0.00,,,0.00,Wunderground v.1.15,2013-04-16 10:50:00,
2013-04-16 06:56:00,49.6,47.4,30.30,East,90,5.0,7.0,92,0.00,,,0.00,Wunderground v.1.15,2013-04-16 10:56:00,
2013-04-16 07:02:00,49.7,47.8,30.30,SE,132,4.0,5.0,93,0.00,,,0.00,Wunderground v.1.15,2013-04-16 11:02:00,
2013-04-16 07:08:00,49.9,47.7,30.30,East,85,4.0,6.0,92,0.00,,,0.00,Wunderground v.1.15,2013-04-16 11:08:00,
2013-04-16 07:14:00,50.1,47.9,30.30,East,96,5.0,6.0,92,0.00,,,0.00,Wunderground v.1.15,2013-04-16 11:14:00,
2013-04-16 07:19:00,50.3,48.1,30.30,East,98,5.0,6.0,92,0.00,,,0.00,Wunderground v.1.15,2013-04-16 11:19:00,
2013-04-16 07:25:00,50.4,48.2,30.31,East,98,4.0,5.0,92,0.00,,,0.00,Wunderground v.1.15,2013-04-16 11:25:00,
2013-04-16 07:30:00,50.6,48.4,30.31,East,85,5.0,6.0,92,0.00,,,0.00,Wunderground v.1.15,2013-04-16 11:30:00,
2013-04-16 07:35:00,50.8,48.6,30.32,East,89,5.0,6.0,92,0.00,,,0.00,Wunderground v.1.15,2013-04-16 11:35:00,
2013-04-16 07:42:00,51.0,48.5,30.31,East,98,3.0,6.0,91,0.00,,,0.00,Wunderground v.1.15,2013-04-16 11:42:00,
2013-04-16 07:48:00,51.2,48.7,30.32,ESE,103,4.0,6.0,91,0.00,,,0.00,Wunderground v.1.15,2013-04-16 11:48:00,
2013-04-16 07:53:00,51.4,48.9,30.32,East,82,4.0,5.0,91,0.00,,,0.00,Wunderground v.1.15,2013-04-16 11:53:00,
2013-04-16 07:58:00,51.5,49.0,30.32,East,87,5.0,7.0,91,0.00,,,0.00,Wunderground v.1.15,2013-04-16 11:58:00,
2013-04-16 08:04:00,51.7,48.9,30.32,East,98,5.0,7.0,90,0.00,,,0.00,Wunderground v.1.15,2013-04-16 12:04:00,
2013-04-16 08:10:00,51.7,48.9,30.32,East,84,5.0,6.0,90,0.00,,,0.00,Wunderground v.1.15,2013-04-16 12:10:00,
2013-04-16 08:15:00,51.6,48.8,30.32,East,82,6.0,8.0,90,0.00,,,0.00,Wunderground v.1.15,2013-04-16 12:15:00,
2013-04-16 08:21:00,51.8,49.0,30.32,ESE,107,6.0,6.0,90,0.00,,,0.00,Wunderground v.1.15,2013-04-16 12:21:00,
2013-04-16 08:27:00,52.4,49.6,30.32,ENE,69,5.0,8.0,90,0.00,,,0.00,Wunderground v.1.15,2013-04-16 12:27:00,
2013-04-16 08:32:00,52.9,49.7,30.32,ENE,67,5.0,7.0,89,0.00,,,0.00,Wunderground v.1.15,2013-04-16 12:32:00,
2013-04-16 08:38:00,53.2,49.7,30.32,East,80,7.0,11.0,88,0.00,,,0.00,Wunderground v.1.15,2013-04-16 12:38:00,
2013-04-16 08:43:00,53.5,49.7,30.32,ESE,117,7.0,8.0,87,0.00,,,0.00,Wunderground v.1.15,2013-04-16 12:43:00,
2013-04-16 08:49:00,54.1,50.3,30.32,ESE,107,6.0,12.0,87,0.00,,,0.00,Wunderground v.1.15,2013-04-16 12:49:00,
2013-04-16 08:54:00,54.3,50.2,30.32,ESE,113,6.0,8.0,86,0.00,,,0.00,Wunderground v.1.15,2013-04-16 12:54:00,
2013-04-16 09:00:00,54.4,50.0,30.31,ESE,104,7.0,7.0,85,0.00,,,0.00,Wunderground v.1.15,2013-04-16 13:00:00,
2013-04-16 09:06:00,54.9,50.5,30.32,SE,135,7.0,8.0,85,0.00,,,0.00,Wunderground v.1.15,2013-04-16 13:06:00,
2013-04-16 09:12:00,55.4,50.6,30.32,ESE,106,6.0,7.0,84,0.00,,,0.00,Wunderground v.1.15,2013-04-16 13:12:00,
2013-04-16 09:17:00,55.4,50.3,30.32,East,95,7.0,11.0,83,0.00,,,0.00,Wunderground v.1.15,2013-04-16 13:17:00,
2013-04-16 09:23:00,55.4,50.6,30.32,SE,127,8.0,9.0,84,0.00,,,0.00,Wunderground v.1.15,2013-04-16 13:23:00,
2013-04-16 09:28:00,55.4,50.6,30.33,East,90,8.0,9.0,84,0.00,,,0.00,Wunderground v.1.15,2013-04-16 13:28:00,
2013-04-16 09:34:00,55.8,50.7,30.33,ESE,105,8.0,11.0,83,0.00,,,0.00,Wunderground v.1.15,2013-04-16 13:34:00,
2013-04-16 09:39:00,56.2,51.1,30.33,East,98,7.0,11.0,83,0.00,,,0.00,Wunderground v.1.15,2013-04-16 13:39:00,
2013-04-16 09:45:00,56.4,51.3,30.33,ESE,107,7.0,9.0,83,0.00,,,0.00,Wunderground v.1.15,2013-04-16 13:45:00,
2013-04-16 09:50:00,56.6,51.5,30.33,SE,128,6.0,6.0,83,0.00,,,0.00,Wunderground v.1.15,2013-04-16 13:50:00,
2013-04-16 09:56:00,57.1,51.7,30.33,East,98,6.0,12.0,82,0.00,,,0.00,Wunderground v.1.15,2013-04-16 13:56:00,
2013-04-16 10:02:00,57.5,52.0,30.33,SE,140,6.0,11.0,82,0.00,,,0.00,Wunderground v.1.15,2013-04-16 14:02:00,
2013-04-16 10:07:00,57.2,51.1,30.34,East,100,7.0,11.0,80,0.00,,,0.00,Wunderground v.1.15,2013-04-16 14:07:00,
2013-04-16 10:13:00,56.8,51.0,30.34,ESE,107,9.0,9.0,81,0.00,,,0.00,Wunderground v.1.15,2013-04-16 14:13:00,
2013-04-16 10:18:00,56.7,50.9,30.34,SE,132,8.0,12.0,81,0.00,,,0.00,Wunderground v.1.15,2013-04-16 14:18:00,
2013-04-16 10:23:00,56.5,50.7,30.33,ESE,121,8.0,12.0,81,0.00,,,0.00,Wunderground v.1.15,2013-04-16 14:23:00,
2013-04-16 10:28:00,57.0,51.6,30.33,ESE,105,6.0,12.0,82,0.00,,,0.00,Wunderground v.1.15,2013-04-16 14:28:00,
2013-04-16 10:34:00,57.5,51.4,30.33,ESE,119,5.0,8.0,80,0.00,,,0.00,Wunderground v.1.15,2013-04-16 14:34:00,
2013-04-16 10:39:00,57.7,51.6,30.33,ESE,111,6.0,11.0,80,0.00,,,0.00,Wunderground v.1.15,2013-04-16 14:39:00,
2013-04-16 10:47:00,57.6,51.1,30.33,SE,127,8.0,11.0,79,0.00,,,0.00,Wunderground v.1.15,2013-04-16 14:47:00,
2013-04-16 10:53:00,57.2,51.1,30.32,SE,128,9.0,11.0,80,0.00,,,0.00,Wunderground v.1.15,2013-04-16 14:53:00,
2013-04-16 10:59:00,57.7,51.9,30.32,East,84,7.0,11.0,81,0.00,,,0.00,Wunderground v.1.15,2013-04-16 14:59:00,
2013-04-16 11:05:00,58.0,51.9,30.32,ESE,115,6.0,9.0,80,0.00,,,0.00,Wunderground v.1.15,2013-04-16 15:05:00,
2013-04-16 11:10:00,57.6,51.1,30.32,ESE,109,8.0,8.0,79,0.00,,,0.00,Wunderground v.1.15,2013-04-16 15:10:00,
2013-04-16 11:15:00,57.4,51.6,30.32,East,86,7.0,11.0,81,0.00,,,0.00,Wunderground v.1.15,2013-04-16 15:15:00,
2013-04-16 11:20:00,57.6,51.8,30.32,East,98,7.0,7.0,81,0.00,,,0.00,Wunderground v.1.15,2013-04-16 15:20:00,
2013-04-16 11:26:00,57.9,51.8,30.32,ENE,66,6.0,12.0,80,0.00,,,0.00,Wunderground v.1.15,2013-04-16 15:26:00,
2013-04-16 11:31:00,58.2,52.1,30.32,SSE,147,5.0,8.0,80,0.00,,,0.00,Wunderground v.1.15,2013-04-16 15:31:00,
2013-04-16 11:37:00,58.7,52.5,30.32,ESE,122,5.0,9.0,80,0.00,,,0.00,Wunderground v.1.15,2013-04-16 15:37:00,
2013-04-16 11:43:00,59.1,52.6,30.32,ESE,121,5.0,8.0,79,0.00,,,0.00,Wunderground v.1.15,2013-04-16 15:43:00,
2013-04-16 11:48:00,59.0,52.5,30.32,SSE,155,6.0,8.0,79,0.00,,,0.00,Wunderground v.1.15,2013-04-16 15:48:00,
2013-04-16 11:54:00,58.6,52.1,30.32,SE,128,8.0,13.0,79,0.00,,,0.00,Wunderground v.1.15,2013-04-16 15:54:00,
2013-04-16 12:00:00,58.7,52.5,30.31,SE,128,8.0,12.0,80,0.00,,,0.00,Wunderground v.1.15,2013-04-16 16:00:00,
2013-04-16 12:05:00,58.7,52.5,30.31,SE,146,7.0,12.0,80,0.00,,,0.00,Wunderground v.1.15,2013-04-16 16:05:00,
2013-04-16 12:11:00,58.7,52.5,30.31,SE,136,7.0,8.0,80,0.00,,,0.00,Wunderground v.1.15,2013-04-16 16:11:00,
2013-04-16 12:17:00,58.4,52.3,30.31,ESE,123,8.0,12.0,80,0.00,,,0.00,Wunderground v.1.15,2013-04-16 16:17:00,
2013-04-16 12:23:00,58.5,52.4,30.32,ESE,121,7.0,11.0,80,0.00,,,0.00,Wunderground v.1.15,2013-04-16 16:23:00,
2013-04-16 12:28:00,59.0,52.8,30.31,ESE,118,7.0,11.0,80,0.00,,,0.00,Wunderground v.1.15,2013-04-16 16:28:00,
2013-04-16 12:34:00,59.1,52.6,30.31,SE,130,6.0,9.0,79,0.00,,,0.00,Wunderground v.1.15,2013-04-16 16:34:00,
2013-04-16 12:40:00,59.3,52.8,30.31,ESE,115,6.0,7.0,79,0.00,,,0.00,Wunderground v.1.15,2013-04-16 16:40:00,
2013-04-16 12:46:00,59.3,52.8,30.31,SE,132,7.0,9.0,79,0.00,,,0.00,Wunderground v.1.15,2013-04-16 16:46:00,
2013-04-16 12:51:00,59.3,52.8,30.30,SE,132,6.0,6.0,79,0.00,,,0.00,Wunderground v.1.15,2013-04-16 16:51:00,
2013-04-16 12:56:00,59.4,52.9,30.30,SE,143,6.0,9.0,79,0.00,,,0.00,Wunderground v.1.15,2013-04-16 16:56:00,
2013-04-16 13:01:00,59.7,53.2,30.30,ESE,108,6.0,11.0,79,0.00,,,0.00,Wunderground v.1.15,2013-04-16 17:01:00,
2013-04-16 13:07:00,60.1,53.6,30.30,SE,131,5.0,11.0,79,0.00,,,0.00,Wunderground v.1.15,2013-04-16 17:07:00,
2013-04-16 13:13:00,60.5,53.6,30.30,SSE,164,5.0,5.0,78,0.00,,,0.00,Wunderground v.1.15,2013-04-16 17:13:00,
2013-04-16 13:19:00,60.6,53.3,30.30,SE,132,5.0,8.0,77,0.00,,,0.00,Wunderground v.1.15,2013-04-16 17:19:00,
2013-04-16 13:26:00,59.8,52.9,30.30,East,99,7.0,10.0,78,0.00,,,0.00,Wunderground v.1.15,2013-04-16 17:26:00,
2013-04-16 13:32:00,59.9,53.4,30.30,SSE,149,6.0,7.0,79,0.00,,,0.00,Wunderground v.1.15,2013-04-16 17:32:00,
2013-04-16 13:37:00,60.2,53.7,30.30,SSE,163,5.0,8.0,79,0.00,,,0.00,Wunderground v.1.15,2013-04-16 17:37:00,
2013-04-16 13:44:00,60.5,54.0,30.30,SE,126,5.0,8.0,79,0.00,,,0.00,Wunderground v.1.15,2013-04-16 17:44:00,
2013-04-16 13:50:00,60.1,52.9,30.29,SSE,163,6.0,6.0,77,0.00,,,0.00,Wunderground v.1.15,2013-04-16 17:50:00,
2013-04-16 13:56:00,59.4,52.9,30.29,SE,144,7.0,10.0,79,0.00,,,0.00,Wunderground v.1.15,2013-04-16 17:56:00,
2013-04-16 14:03:00,59.1,52.6,30.29,SSE,157,6.0,9.0,79,0.00,,,0.00,Wunderground v.1.15,2013-04-16 18:03:00,
2013-04-16 14:09:00,59.1,52.9,30.29,SSE,150,6.0,10.0,80,0.00,,,0.00,Wunderground v.1.15,2013-04-16 18:09:00,
2013-04-16 14:15:00,59.0,52.8,30.29,SE,142,6.0,8.0,80,0.00,,,0.00,Wunderground v.1.15,2013-04-16 18:15:00,
2013-04-16 14:20:00,59.2,53.0,30.28,SE,143,6.0,8.0,80,0.00,,,0.00,Wunderground v.1.15,2013-04-16 18:20:00,
2013-04-16 14:26:00,58.4,52.3,30.28,South,175,8.0,11.0,80,0.00,,,0.00,Wunderground v.1.15,2013-04-16 18:26:00,
2013-04-16 14:31:00,58.1,52.6,30.28,SE,129,8.0,8.0,82,0.00,,,0.00,Wunderground v.1.15,2013-04-16 18:31:00,
2013-04-16 14:37:00,58.4,52.9,30.28,SSE,163,6.0,8.0,82,0.00,,,0.00,Wunderground v.1.15,2013-04-16 18:37:00,
2013-04-16 14:42:00,58.8,53.3,30.27,SE,139,6.0,8.0,82,0.00,,,0.00,Wunderground v.1.15,2013-04-16 18:42:00,
2013-04-16 14:47:00,58.7,52.9,30.27,SE,140,7.0,8.0,81,0.00,,,0.00,Wunderground v.1.15,2013-04-16 18:47:00,
2013-04-16 14:53:00,58.6,52.8,30.27,SE,144,7.0,10.0,81,0.00,,,0.00,Wunderground v.1.15,2013-04-16 18:53:00,
2013-04-16 14:59:00,58.9,53.1,30.27,SE,139,7.0,10.0,81,0.00,,,0.00,Wunderground v.1.15,2013-04-16 18:59:00,
2013-04-16 15:05:00,59.1,53.3,30.26,SE,146,7.0,9.0,81,0.00,,,0.00,Wunderground v.1.15,2013-04-16 19:05:00,
2013-04-16 15:11:00,59.4,53.6,30.26,SE,145,7.0,8.0,81,0.00,,,0.00,Wunderground v.1.15,2013-04-16 19:11:00,
2013-04-16 15:16:00,59.3,53.1,30.25,SSE,150,7.0,9.0,80,0.00,,,0.00,Wunderground v.1.15,2013-04-16 19:16:00,
2013-04-16 15:22:00,59.1,52.9,30.25,SSE,159,7.0,10.0,80,0.00,,,0.00,Wunderground v.1.15,2013-04-16 19:22:00,
2013-04-16 15:28:00,59.1,53.3,30.25,SSE,156,7.0,10.0,81,0.00,,,0.00,Wunderground v.1.15,2013-04-16 19:28:00,
2013-04-16 15:33:00,59.1,53.6,30.25,SSE,166,7.0,8.0,82,0.00,,,0.00,Wunderground v.1.15,2013-04-16 19:33:00,
2013-04-16 15:39:00,59.1,53.3,30.25,South,184,7.0,8.0,81,0.00,,,0.00,Wunderground v.1.15,2013-04-16 19:39:00,
2013-04-16 15:45:00,59.1,53.3,30.24,South,174,7.0,11.0,81,0.00,,,0.00,Wunderground v.1.15,2013-04-16 19:45:00,
2013-04-16 15:50:00,59.2,53.4,30.24,SE,130,7.0,7.0,81,0.00,,,0.00,Wunderground v.1.15,2013-04-16 19:50:00,
2013-04-16 15:56:00,59.1,53.3,30.23,South,169,8.0,9.0,81,0.00,,,0.00,Wunderground v.1.15,2013-04-16 19:56:00,
2013-04-16 16:02:00,59.0,53.2,30.23,SE,134,8.0,12.0,81,0.00,,,0.00,Wunderground v.1.15,2013-04-16 20:02:00,
2013-04-16 16:08:00,59.1,53.3,30.23,SSW,195,7.0,12.0,81,0.00,,,0.00,Wunderground v.1.15,2013-04-16 20:08:00,
2013-04-16 16:13:00,59.4,53.6,30.23,SSE,155,7.0,7.0,81,0.00,,,0.00,Wunderground v.1.15,2013-04-16 20:13:00,
2013-04-16 16:20:00,59.2,53.0,30.23,SSE,150,7.0,7.0,80,0.00,,,0.00,Wunderground v.1.15,2013-04-16 20:20:00,
2013-04-16 16:26:00,59.2,53.0,30.23,South,171,7.0,12.0,80,0.00,,,0.00,Wunderground v.1.15,2013-04-16 20:26:00,
2013-04-16 16:31:00,58.9,52.7,30.23,SSW,200,8.0,10.0,80,0.00,,,0.00,Wunderground v.1.15,2013-04-16 20:31:00,
2013-04-16 16:37:00,58.9,52.7,30.23,SE,144,7.0,10.0,80,0.00,,,0.00,Wunderground v.1.15,2013-04-16 20:37:00,
2013-04-16 16:42:00,58.9,52.7,30.23,SE,132,7.0,10.0,80,0.00,,,0.00,Wunderground v.1.15,2013-04-16 20:42:00,
2013-04-16 16:48:00,58.5,52.4,30.23,SE,138,8.0,13.0,80,0.00,,,0.00,Wunderground v.1.15,2013-04-16 20:48:00,
2013-04-16 16:53:00,58.1,52.3,30.23,SSE,163,8.0,8.0,81,0.00,,,0.00,Wunderground v.1.15,2013-04-16 20:53:00,
2013-04-16 16:59:00,58.1,52.3,30.23,SSW,192,7.0,9.0,81,0.00,,,0.00,Wunderground v.1.15,2013-04-16 20:59:00,
2013-04-16 17:05:00,58.0,52.2,30.23,SSE,150,7.0,10.0,81,0.00,,,0.00,Wunderground v.1.15,2013-04-16 21:05:00,
2013-04-16 17:10:00,58.0,52.2,30.22,SW,214,7.0,7.0,81,0.00,,,0.00,Wunderground v.1.15,2013-04-16 21:10:00,
2013-04-16 17:16:00,57.7,52.2,30.22,ESE,117,7.0,10.0,82,0.00,,,0.00,Wunderground v.1.15,2013-04-16 21:16:00,
2013-04-16 17:22:00,57.6,52.1,30.22,South,180,7.0,13.0,82,0.00,,,0.00,Wunderground v.1.15,2013-04-16 21:22:00,
2013-04-16 17:27:00,57.5,52.4,30.22,SSE,150,8.0,13.0,83,0.00,,,0.00,Wunderground v.1.15,2013-04-16 21:27:00,
2013-04-16 17:33:00,57.4,52.3,30.22,South,183,8.0,8.0,83,0.00,,,0.00,Wunderground v.1.15,2013-04-16 21:33:00,
2013-04-16 17:39:00,57.1,52.0,30.22,SE,146,8.0,11.0,83,0.00,,,0.00,Wunderground v.1.15,2013-04-16 21:39:00,
2013-04-16 17:44:00,57.1,52.0,30.22,SSE,147,7.0,8.0,83,0.00,,,0.00,Wunderground v.1.15,2013-04-16 21:44:00,
2013-04-16 17:50:00,56.9,52.1,30.22,SSE,163,7.0,8.0,84,0.00,,,0.00,Wunderground v.1.15,2013-04-16 21:50:00,
2013-04-16 17:56:00,56.7,51.9,30.22,SSE,167,7.0,11.0,84,0.00,,,0.00,Wunderground v.1.15,2013-04-16 21:56:00,
2013-04-16 18:02:00,56.6,52.1,30.21,South,187,8.0,8.0,85,0.00,,,0.00,Wunderground v.1.15,2013-04-16 22:02:00,
2013-04-16 18:07:00,56.5,52.0,30.21,South,180,7.0,8.0,85,0.00,,,0.00,Wunderground v.1.15,2013-04-16 22:07:00,
2013-04-16 18:13:00,56.4,51.9,30.21,South,182,8.0,11.0,85,0.00,,,0.00,Wunderground v.1.15,2013-04-16 22:13:00,
2013-04-16 18:19:00,56.2,51.7,30.21,SSE,161,9.0,13.0,85,0.00,,,0.00,Wunderground v.1.15,2013-04-16 22:19:00,
2013-04-16 18:25:00,55.9,51.8,30.21,SE,144,8.0,10.0,86,0.00,,,0.00,Wunderground v.1.15,2013-04-16 22:25:00,
2013-04-16 18:32:00,55.5,51.7,30.21,SE,144,7.0,8.0,87,0.00,,,0.00,Wunderground v.1.15,2013-04-16 22:32:00,
2013-04-16 18:37:00,55.4,51.6,30.20,ESE,123,7.0,8.0,87,0.00,,,0.00,Wunderground v.1.15,2013-04-16 22:37:00,
2013-04-16 18:43:00,55.1,51.3,30.20,SSE,153,7.0,11.0,87,0.00,,,0.00,Wunderground v.1.15,2013-04-16 22:43:00,
2013-04-16 18:48:00,54.9,51.4,30.20,SSE,165,8.0,11.0,88,0.00,,,0.00,Wunderground v.1.15,2013-04-16 22:48:00,
2013-04-16 18:54:00,54.6,51.1,30.19,SSE,164,8.0,11.0,88,0.00,,,0.00,Wunderground v.1.15,2013-04-16 22:54:00,
2013-04-16 18:59:00,54.5,51.3,30.19,SSE,156,7.0,11.0,89,0.00,,,0.00,Wunderground v.1.15,2013-04-16 22:59:00,
2013-04-16 19:05:00,54.4,51.2,30.19,South,181,7.0,11.0,89,0.00,,,0.00,Wunderground v.1.15,2013-04-16 23:05:00,
2013-04-16 19:11:00,54.2,51.3,30.19,South,170,7.0,9.0,90,0.00,,,0.00,Wunderground v.1.15,2013-04-16 23:11:00,
2013-04-16 19:16:00,54.1,51.2,30.19,SSE,147,7.0,10.0,90,0.00,,,0.00,Wunderground v.1.15,2013-04-16 23:16:00,
2013-04-16 19:22:00,54.0,51.1,30.19,South,182,8.0,9.0,90,0.00,,,0.00,Wunderground v.1.15,2013-04-16 23:22:00,
2013-04-16 19:28:00,53.9,51.3,30.18,SSW,210,8.0,11.0,91,0.00,,,0.00,Wunderground v.1.15,2013-04-16 23:28:00,
2013-04-16 19:34:00,53.9,51.3,30.18,SSE,153,8.0,10.0,91,0.00,,,0.00,Wunderground v.1.15,2013-04-16 23:34:00,
2013-04-16 19:39:00,53.9,51.3,30.18,South,173,8.0,10.0,91,0.00,,,0.00,Wunderground v.1.15,2013-04-16 23:39:00,
2013-04-16 19:45:00,53.7,51.1,30.18,South,170,9.0,13.0,91,0.00,,,0.00,Wunderground v.1.15,2013-04-16 23:45:00,
2013-04-16 19:50:00,53.6,51.3,30.17,SSE,155,10.0,10.0,92,0.00,,,0.00,Wunderground v.1.15,2013-04-16 23:50:00,
2013-04-16 19:55:00,53.5,51.2,30.18,South,171,9.0,10.0,92,0.00,,,0.00,Wunderground v.1.15,2013-04-16 23:55:00,
2013-04-16 20:00:00,53.5,51.2,30.17,SSE,156,8.0,10.0,92,0.00,,,0.00,Wunderground v.1.15,2013-04-17 00:00:00,
2013-04-16 20:06:00,53.6,51.3,30.17,SSE,152,8.0,11.0,92,0.00,,,0.00,Wunderground v.1.15,2013-04-17 00:06:00,
2013-04-16 20:11:00,53.5,51.2,30.16,SSE,150,9.0,11.0,92,0.00,,,0.00,Wunderground v.1.15,2013-04-17 00:11:00,
2013-04-16 20:17:00,53.5,51.2,30.16,SE,142,10.0,15.0,92,0.00,,,0.00,Wunderground v.1.15,2013-04-17 00:17:00,
2013-04-16 20:23:00,53.6,51.3,30.15,SSW,198,10.0,11.0,92,0.00,,,0.00,Wunderground v.1.15,2013-04-17 00:23:00,
2013-04-16 20:28:00,53.6,51.3,30.15,SSE,165,10.0,11.0,92,0.00,,,0.00,Wunderground v.1.15,2013-04-17 00:28:00,
2013-04-16 20:34:00,53.5,51.2,30.14,South,176,9.0,13.0,92,0.00,,,0.00,Wunderground v.1.15,2013-04-17 00:34:00,
2013-04-16 20:40:00,53.5,51.2,30.14,South,173,9.0,9.0,92,0.00,,,0.00,Wunderground v.1.15,2013-04-17 00:40:00,
2013-04-16 20:45:00,53.5,51.5,30.14,South,175,9.0,12.0,93,0.00,,,0.00,Wunderground v.1.15,2013-04-17 00:45:00,
2013-04-16 20:51:00,53.6,51.6,30.15,South,172,9.0,10.0,93,0.00,,,0.00,Wunderground v.1.15,2013-04-17 00:51:00,
2013-04-16 20:57:00,53.7,51.7,30.15,SSW,210,9.0,10.0,93,0.00,,,0.00,Wunderground v.1.15,2013-04-17 00:57:00,
2013-04-16 21:02:00,53.9,51.9,30.15,SSE,158,8.0,12.0,93,0.00,,,0.00,Wunderground v.1.15,2013-04-17 01:02:00,
2013-04-16 21:08:00,53.9,51.9,30.15,SSE,155,8.0,15.0,93,0.00,,,0.00,Wunderground v.1.15,2013-04-17 01:08:00,
2013-04-16 21:13:00,54.0,52.0,30.15,South,190,8.0,9.0,93,0.00,,,0.00,Wunderground v.1.15,2013-04-17 01:13:00,
2013-04-16 21:19:00,53.9,51.9,30.15,SSE,157,8.0,10.0,93,0.00,,,0.00,Wunderground v.1.15,2013-04-17 01:19:00,
2013-04-16 21:25:00,53.9,51.9,30.16,SSW,207,7.0,9.0,93,0.00,,,0.00,Wunderground v.1.15,2013-04-17 01:25:00,
2013-04-16 21:30:00,53.8,51.8,30.16,South,184,8.0,8.0,93,0.00,,,0.00,Wunderground v.1.15,2013-04-17 01:30:00,
2013-04-16 21:36:00,53.7,51.7,30.16,SSW,205,7.0,14.0,93,0.00,,,0.00,Wunderground v.1.15,2013-04-17 01:36:00,
2013-04-16 21:42:00,53.7,51.7,30.17,SSW,195,7.0,8.0,93,0.00,,,0.00,Wunderground v.1.15,2013-04-17 01:42:00,
2013-04-16 21:48:00,54.0,52.0,30.17,SSE,167,8.0,8.0,93,0.00,,,0.00,Wunderground v.1.15,2013-04-17 01:48:00,
2013-04-16 21:53:00,54.1,52.1,30.18,SSW,195,8.0,10.0,93,0.00,,,0.00,Wunderground v.1.15,2013-04-17 01:53:00,
2013-04-16 22:00:00,54.3,52.3,30.18,SSW,207,8.0,8.0,93,0.00,,,0.00,Wunderground v.1.15,2013-04-17 02:00:00,
2013-04-16 22:06:00,54.4,52.4,30.18,SW,220,7.0,9.0,93,0.00,,,0.00,Wunderground v.1.15,2013-04-17 02:06:00,
2013-04-16 22:12:00,54.6,52.6,30.18,SSW,209,8.0,11.0,93,0.00,,,0.00,Wunderground v.1.15,2013-04-17 02:12:00,
2013-04-16 22:18:00,54.8,52.5,30.19,SSW,201,8.0,11.0,92,0.00,,,0.00,Wunderground v.1.15,2013-04-17 02:18:00,
2013-04-16 22:24:00,54.8,52.5,30.19,SSW,213,7.0,9.0,92,0.00,,,0.00,Wunderground v.1.15,2013-04-17 02:24:00,
2013-04-16 22:30:00,54.9,52.6,30.18,SSW,195,6.0,8.0,92,0.00,,,0.00,Wunderground v.1.15,2013-04-17 02:30:00,
2013-04-16 22:36:00,54.9,52.6,30.19,SSW,202,7.0,12.0,92,0.00,,,0.00,Wunderground v.1.15,2013-04-17 02:36:00,
2013-04-16 22:41:00,55.1,52.8,30.18,SSW,201,8.0,11.0,92,0.00,,,0.00,Wunderground v.1.15,2013-04-17 02:41:00,
2013-04-16 22:47:00,55.2,52.9,30.18,SSW,198,9.0,11.0,92,0.00,,,0.00,Wunderground v.1.15,2013-04-17 02:47:00,
2013-04-16 22:52:00,55.3,53.0,30.18,SSW,199,9.0,14.0,92,0.00,,,0.00,Wunderground v.1.15,2013-04-17 02:52:00,
2013-04-16 22:58:00,55.3,53.0,30.18,SW,223,9.0,15.0,92,0.00,,,0.00,Wunderground v.1.15,2013-04-17 02:58:00,
2013-04-16 23:03:00,55.4,53.1,30.18,SSW,210,10.0,14.0,92,0.00,,,0.00,Wunderground v.1.15,2013-04-17 03:03:00,
2013-04-16 23:09:00,55.6,53.0,30.18,SSW,194,11.0,15.0,91,0.00,,,0.00,Wunderground v.1.15,2013-04-17 03:09:00,
2013-04-16 23:14:00,55.7,53.1,30.17,SSW,203,11.0,11.0,91,0.00,,,0.00,Wunderground v.1.15,2013-04-17 03:14:00,
2013-04-16 23:20:00,55.6,53.0,30.17,SSE,159,10.0,10.0,91,0.00,,,0.00,Wunderground v.1.15,2013-04-17 03:20:00,
2013-04-16 23:26:00,55.4,52.8,30.16,SSW,192,9.0,15.0,91,0.00,,,0.00,Wunderground v.1.15,2013-04-17 03:26:00,
2013-04-16 23:31:00,55.1,52.5,30.16,SW,217,9.0,9.0,91,0.00,,,0.00,Wunderground v.1.15,2013-04-17 03:31:00,
2013-04-16 23:36:00,54.9,52.3,30.16,SSE,148,9.0,13.0,91,0.00,,,0.00,Wunderground v.1.15,2013-04-17 03:36:00,
2013-04-16 23:42:00,54.6,52.0,30.16,South,178,8.0,8.0,91,0.00,,,0.00,Wunderground v.1.15,2013-04-17 03:42:00,
2013-04-16 23:47:00,54.4,51.8,30.16,South,170,8.0,11.0,91,0.00,,,0.00,Wunderground v.1.15,2013-04-17 03:47:00,
2013-04-16 23:53:00,54.2,51.9,30.16,SSW,198,8.0,10.0,92,0.00,,,0.00,Wunderground v.1.15,2013-04-17 03:53:00,
2013-04-16 23:59:00,54.5,52.2,30.16,SW,221,8.0,13.0,92,0.00,,,0.00,Wunderground v.1.15,2013-04-17 03:59:00,